Flag for Bahrain Weather past 2 weeks in Manama, Bahrain

Now
99 °F

Sunny.


Feels Like: 96 °F
Forecast: 90 / 102 °F
Wind: 10 mph from Northwest

Location: Bahrain International Airport

Current Time: Jul 30, 2014 at 10:03:15 AM

Latest Report: Jul 30, 2014 at 9:00 AM


Visibility: 10 mi

Pressure: 29.45 "Hg

Humidity: 22%

Dew point: 54 °F

Location of ManamaLocation

Historic Weather in Manama — Graph

°F

Manama temperature yesterday

Maximum temperature yesterday: 102 °F (at 12:00 PM)
Minimum temperature yesterday: 93 °F (at 3:00 AM)
Average temperature yesterday: 97 °F

Past Weeks' High & Low Weather Summary

 TemperatureHumidityPressure
High106 °F (Jul 16, 12:00 PM)79% (Jul 18, 2:00 AM)29.62 "Hg (Jul 18, 2:00 AM)
Low90 °F (Jul 16, 1:00 AM)10% (Jul 16, 12:00 PM)29.33 "Hg (Jul 17, 4:00 PM)
Average96 °F42%29.46 "Hg
* Reported Jul 15 8:00 AM — Jul 30 8:00 AM, Manama, Weather by CustomWeather, © 2014

Note: Actual official high and low records may vary slightly from our data, if they occured in-between our weather recording intervals... More about our weather records

Advertising

Manama weather history for previous 24 hours

 ConditionsComfort  
Time TempWeatherWind HumidityBarometerVisibility
8:00 AM
Jul 30
97 °FClear.14 mph25%29.42 "Hg6 mi
7:00 AM95 °FClear.12 mph26%29.42 "Hg4 mi
6:00 AM93 °FClear.8 mph32%29.42 "Hg4 mi
5:00 AM95 °FClear.9 mph25%29.39 "Hg3 mi
4:00 AM95 °FClear.6 mph32%29.39 "Hg4 mi
3:00 AM93 °FClear.5 mph41%29.39 "Hg4 mi
2:00 AM95 °FClear.7 mph39%29.39 "Hg4 mi
1:00 AM95 °FClear.6 mph36%29.39 "Hg4 mi
12:00 AM95 °FClear.3 mph34%29.42 "Hg4 mi
11:00 PM
Jul 29
95 °FClear.3 mph41%29.42 "Hg10 mi
10:00 PM95 °FClear.5 mph41%29.45 "Hg10 mi
9:00 PM93 °FClear.7 mph47%29.42 "Hg10 mi
8:00 PM93 °FClear.3 mph41%29.42 "Hg10 mi
7:00 PM97 °FClear.5 mph30%29.42 "Hg10 mi
6:00 PM97 °FSunny.8 mph34%29.42 "Hg10 mi
5:00 PM99 °FSunny.12 mph31%29.42 "Hg10 mi
4:00 PM99 °FSunny.14 mph29%29.42 "Hg10 mi
3:00 PM102 °FSunny.17 mph24%29.42 "Hg10 mi
2:00 PM102 °FSunny.21 mph21%29.45 "Hg10 mi
1:00 PM102 °FSunny.21 mph23%29.45 "Hg10 mi
12:00 PM102 °FSunny.20 mph21%29.47 "Hg10 mi
11:00 AM100 °FSunny.20 mph20%29.47 "Hg10 mi
10:00 AM99 °FSunny.13 mph33%29.47 "Hg10 mi
Weather by CustomWeather, © 2014

See weather overviewHow to use our weather pages